[[{"header":{"parameterUnit":"m.s-1","parameterCategory":1,"la1":30.2991,"la2":30.254,"lo1":-89.0895,"lo2":-89.0444,"dy":0.0017,"dx":0.0017,"nx":28,"ny":28,"refTime":"2025-11-13T09:00:00:Z","depth":0,"parameterNumber":2,"parameterNumberName":"U-component_of_WINDS"},"data":[0,0,0,0,0,0,0,0,0,0,0,0,0,0,0,0,0,0,0,0,0,0,0,0,0,0,0,0,0,0,0,0,0,0,0,0,0,0,0,0,0,0,0,0,0,0,0,0,0,0,0,0,0,0,0,0,0,0,-0.546,-0.5462,0,-0.5567,-0.5569,-0.557,-0.5579,-0.5578,-0.5577,-0.5576,-0.5689,-0.5693,-0.5697,0,0,0,0,0,0,0,0,0,0,0,0,0,-0.527,-0.5273,-0.546,-0.5462,-0.5463,-0.5567,-0.5569,-0.557,-0.5579,-0.5578,-0.5576,-0.5575,-0.5688,-0.5693,-0.5698,0,0,0,0,0,0,0,0,0,0,0,0,0,-0.5362,-0.5274,-0.546,-0.548,-0.5483,-0.5567,-0.5569,-0.5571,-0.5579,-0.5578,-0.5576,-0.5574,-0.5686,-0.5692,-0.5698,-0.5771,0,0,-0.5717,-0.572,0,0,0,0,0,0,0,0,-0.5357,-0.5369,-0.5476,-0.5479,-0.5482,-0.5558,-0.5543,-0.5638,-0.558,-0.5543,-0.5576,-0.5574,-0.5647,-0.5656,-0.568,-0.5776,-0.5781,-0.5718,-0.5721,-0.5724,-0.5726,0,0,0,0,0,0,0,-0.5351,-0.5365,-0.5503,-0.5477,-0.5481,-0.5486,-0.5497,-0.5561,-0.5604,-0.5546,-0.5547,-0.5559,-0.5649,-0.5674,-0.5683,-0.5783,-0.5717,-0.5723,-0.5727,-0.5729,-0.5948,-0.595,0,0,0,0,0,0,-0.534,-0.5359,-0.5499,-0.5506,-0.5414,-0.549,-0.5503,-0.5535,-0.5603,-0.5611,-0.5561,-0.5559,-0.5665,-0.5676,-0.5687,-0.5779,-0.5724,-0.573,-0.5733,-0.5946,-0.5948,-0.595,0,0,0,0,0,0,-0.5336,-0.5352,-0.5495,-0.5433,-0.5452,-0.5495,-0.5532,-0.5538,-0.5564,-0.5614,-0.5622,-0.5579,-0.5664,-0.5679,-0.5751,-0.5783,-0.5732,-0.5738,-0.5943,-0.5946,-0.5949,-0.5962,0,0,0,0,0,0,-0.533,-0.5351,-0.5377,-0.5433,-0.5455,-0.5555,-0.5534,-0.5542,-0.5574,-0.5574,-0.5633,-0.5641,-0.5664,-0.5741,-0.5757,-0.5791,-0.5743,-0.594,-0.5945,-0.5948,-0.5959,-0.5965,-0.5971,0,0,0,0,0,-0.5323,-0.5377,-0.5378,-0.5395,-0.5489,-0.5557,-0.5569,-0.5592,-0.5577,-0.5605,-0.5638,-0.5639,-0.5777,-0.5749,-0.5766,-0.5802,-0.5938,-0.5943,-0.5948,-0.5956,-0.5964,-0.5971,0,0,0,0,0,0,-0.5324,-0.5384,-0.5387,-0.546,-0.5503,-0.5558,-0.5594,-0.5599,-0.5649,-0.5646,-0.5674,-0.5688,-0.576,-0.5788,-0.5756,-0.5878,-0.5856,-0.5865,-0.5857,-0.5865,-0.587,-0.5862,-0.5748,0,0,0,0,0,-0.5332,-0.5381,-0.5432,-0.5491,-0.5513,-0.555,-0.558,-0.5595,-0.5641,-0.566,-0.5697,-0.5744,-0.5798,-0.5833,-0.5885,-0.5963,-0.5978,-0.5997,-0.6003,-0.6007,-0.6015,-0.6061,-0.6071,-0.5966,-0.5966,-0.5966,0,0,-0.535,-0.5389,-0.5418,-0.5492,-0.5527,-0.5579,-0.5565,-0.562,-0.5659,-0.5668,-0.5739,-0.5768,-0.5822,-0.5899,-0.5934,-0.5925,-0.6047,-0.6013,-0.6017,-0.6022,-0.6067,-0.6077,-0.6086,-0.5969,-0.5969,-0.5968,0,0,-0.541,-0.5443,-0.5498,-0.5533,-0.5587,-0.5612,-0.5625,-0.568,-0.57,-0.5771,-0.578,-0.5828,-0.5919,-0.5958,-0.599,-0.6068,-0.6072,-0.6084,-0.6115,-0.616,-0.6168,-0.6176,-0.6206,-0.6216,-0.6091,-0.6091,-0.6091,0,-0.5426,-0.5503,-0.5525,-0.5581,-0.5614,-0.5624,-0.5681,-0.5715,-0.5784,-0.5808,-0.5796,-0.5913,-0.5949,-0.6036,-0.6056,-0.608,-0.6098,-0.6077,-0.6165,-0.6173,-0.618,-0.6209,-0.622,-0.6092,-0.6092,-0.6092,-0.6092,0,-0.5521,-0.5575,-0.5612,-0.5678,-0.5716,-0.5771,-0.5805,-0.5841,-0.5853,-0.5879,-0.5954,-0.5998,-0.6061,-0.6083,-0.6095,-0.6173,-0.6165,-0.6159,-0.6138,-0.6191,-0.6219,-0.623,-0.6094,-0.6093,-0.6093,-0.6093,0,0,-0.5583,-0.5661,-0.5675,-0.5706,-0.5767,-0.581,-0.5868,-0.5928,-0.596,-0.6007,-0.6058,-0.6136,-0.6132,-0.6168,-0.6185,-0.6224,-0.6286,-0.6213,-0.6215,-0.6227,-0.6378,-0.6383,-0.6395,-0.6289,-0.6291,-0.6293,-0.6374,0,-0.5651,-0.5752,-0.5776,-0.5864,-0.5915,-0.5927,-0.5978,-0.6022,-0.6049,-0.6098,-0.6129,-0.6185,-0.6173,-0.6196,-0.6235,-0.627,-0.6317,-0.6264,-0.6339,-0.6341,-0.6326,-0.6409,-0.6414,-0.6488,-0.6384,-0.6386,-0.6388,0,-0.5743,-0.5793,-0.5885,-0.5942,-0.5965,-0.601,-0.6069,-0.6115,-0.6166,-0.6184,-0.6225,-0.6239,-0.6302,-0.6277,-0.6367,-0.633,-0.6363,-0.6385,-0.6388,-0.6397,-0.6368,-0.6422,-0.6512,-0.6524,-0.6405,-0.6403,-0.6402,0,-0.5782,-0.5871,-0.5939,-0.5965,-0.6032,-0.6064,-0.6094,-0.6144,-0.618,-0.6232,-0.6256,-0.6315,-0.6348,-0.6395,-0.6425,-0.6404,-0.6513,-0.649,-0.6531,-0.653,-0.6554,-0.6552,-0.6652,-0.6572,-0.6572,-0.6572,-0.6572,0,-0.5856,-0.5913,-0.5958,-0.5999,-0.6065,-0.6092,-0.6157,-0.6187,-0.6232,-0.6282,-0.6296,-0.6343,-0.6379,-0.6432,-0.6456,-0.6528,-0.6542,-0.656,-0.6566,-0.6559,-0.6557,-0.6581,-0.6577,-0.6575,-0.6574,-0.6574,-0.6573,0,-0.5909,-0.5941,-0.6017,-0.6075,-0.6091,-0.6136,-0.6187,-0.623,-0.6258,-0.6321,-0.6338,-0.6383,-0.6446,-0.648,-0.6559,-0.6576,-0.6657,-0.6659,-0.6639,-0.6642,-0.6682,-0.6678,-0.6802,-0.682,-0.6727,-0.6728,-0.6728,0,-0.5955,-0.5999,-0.6062,-0.6096,-0.6126,-0.6181,-0.6218,-0.6248,-0.6286,-0.635,-0.6385,-0.6449,-0.6501,-0.6602,-0.6643,-0.6705,-0.671,-0.6749,-0.6719,-0.6712,-0.6713,-0.671,-0.6716,-0.6754,-0.6755,-0.6756,-0.6756,0,-0.6033,-0.6047,-0.6099,-0.6158,-0.6201,-0.6249,-0.6296,-0.6324,-0.6362,-0.6405,-0.6469,-0.651,-0.6591,-0.6655,-0.6721,-0.6754,-0.6763,-0.6766,-0.6779,-0.6773,-0.676,-0.6769,-0.6655,-0.6763,-0.6762,-0.6762,-0.6761,-0.6761,-0.6085,-0.6126,-0.6178,-0.6236,-0.6275,-0.6319,-0.6363,-0.6397,-0.645,-0.6518,-0.6533,-0.6602,-0.6656,-0.6744,-0.6779,-0.6835,-0.6828,-0.6846,-0.6851,-0.6855,-0.6858,-0.675,-0.6847,-0.6847,-0.6847,-0.6846,-0.6846,0,-0.6166,-0.62,-0.6253,-0.6319,-0.6366,-0.6369,-0.6422,-0.6462,-0.6522,-0.657,-0.6622,-0.6698,-0.6761,-0.6807,-0.6872,-0.6908,-0.6914,-0.6924,-0.6922,-0.693,-0.686,-0.6843,-0.6918,-0.6918,-0.6918,-0.6918,-0.6918,-0.6918,-0.6213,-0.6283,-0.6304,-0.6395,-0.6429,-0.6496,-0.6526,-0.6569,-0.6608,-0.6691,-0.6743,-0.6773,-0.6822,-0.6891,-0.695,-0.6962,-0.6986,-0.6996,-0.7009,-0.6943,-0.6935,-0.6928,-0.6912,-0.7001,-0.7001,-0.7076,-0.7076,-0.7077]},{"header":{"parameterUnit":"m.s-1","parameterCategory":1,"la1":30.2991,"la2":30.254,"lo1":-89.0895,"lo2":-89.0444,"dy":0.0017,"dx":0.0017,"nx":28,"ny":28,"refTime":"2025-11-13T09:00:00:Z","depth":0,"parameterNumber":3,"parameterNumberName":"V-component_of_WINDS"},"data":[0,0,0,0,0,0,0,0,0,0,0,0,0,0,0,0,0,0,0,0,0,0,0,0,0,0,0,0,0,0,0,0,0,0,0,0,0,0,0,0,0,0,0,0,0,0,0,0,0,0,0,0,0,0,0,0,0,0,-1.2297,-1.2298,0,-1.2335,-1.2336,-1.2336,-1.2331,-1.233,-1.2329,-1.2329,-1.2365,-1.2366,-1.2368,0,0,0,0,0,0,0,0,0,0,0,0,0,-1.2219,-1.2221,-1.2297,-1.2298,-1.2298,-1.2335,-1.2336,-1.2336,-1.2331,-1.233,-1.2329,-1.2328,-1.2364,-1.2366,-1.2368,0,0,0,0,0,0,0,0,0,0,0,0,0,-1.2255,-1.2221,-1.2297,-1.23,-1.2301,-1.2335,-1.2336,-1.2336,-1.2331,-1.233,-1.2329,-1.2328,-1.2364,-1.2366,-1.2368,-1.2401,0,0,-1.2375,-1.2376,0,0,0,0,0,0,0,0,-1.2253,-1.2257,-1.2299,-1.23,-1.2301,-1.2327,-1.2321,-1.2358,-1.2331,-1.2319,-1.2329,-1.2328,-1.2353,-1.2356,-1.2365,-1.2403,-1.2405,-1.2375,-1.2377,-1.2378,-1.2379,0,0,0,0,0,0,0,-1.225,-1.2256,-1.2312,-1.23,-1.2301,-1.2299,-1.2303,-1.2328,-1.2341,-1.232,-1.232,-1.2325,-1.2353,-1.2363,-1.2366,-1.2405,-1.2375,-1.2377,-1.2379,-1.238,-1.2475,-1.2476,0,0,0,0,0,0,-1.2247,-1.2254,-1.2311,-1.2313,-1.2274,-1.2301,-1.2306,-1.232,-1.2341,-1.2343,-1.2325,-1.2324,-1.2359,-1.2363,-1.2367,-1.2409,-1.2378,-1.238,-1.2381,-1.2474,-1.2475,-1.2476,0,0,0,0,0,0,-1.2246,-1.2252,-1.2309,-1.2284,-1.2291,-1.2304,-1.2319,-1.2321,-1.2331,-1.2345,-1.2347,-1.2333,-1.2359,-1.2364,-1.2394,-1.241,-1.2381,-1.2383,-1.2472,-1.2474,-1.2476,-1.2493,0,0,0,0,0,0,-1.2243,-1.2252,-1.2265,-1.2284,-1.2292,-1.2336,-1.232,-1.2322,-1.2335,-1.2334,-1.2352,-1.2354,-1.2358,-1.239,-1.2396,-1.2413,-1.2385,-1.2471,-1.2473,-1.2475,-1.2491,-1.2495,-1.2498,0,0,0,0,0,-1.2241,-1.2267,-1.2265,-1.2272,-1.2309,-1.2337,-1.2341,-1.2346,-1.2336,-1.235,-1.2359,-1.2354,-1.2408,-1.2393,-1.24,-1.2418,-1.247,-1.2472,-1.2475,-1.2489,-1.2494,-1.2498,0,0,0,0,0,0,-1.2247,-1.2269,-1.2268,-1.2301,-1.2317,-1.2336,-1.2352,-1.2351,-1.2369,-1.2367,-1.2372,-1.2376,-1.2407,-1.2415,-1.2399,-1.2452,-1.2437,-1.2441,-1.2446,-1.2451,-1.2454,-1.2452,-1.2387,0,0,0,0,0,-1.2253,-1.2275,-1.2292,-1.232,-1.2328,-1.2339,-1.2351,-1.2354,-1.2371,-1.2377,-1.2388,-1.2404,-1.2425,-1.2438,-1.2457,-1.2492,-1.2497,-1.2507,-1.2511,-1.2514,-1.2518,-1.2539,-1.2545,-1.2485,-1.2485,-1.2485,0,0,-1.2264,-1.2279,-1.2292,-1.2322,-1.2335,-1.2357,-1.2345,-1.2368,-1.2385,-1.238,-1.241,-1.2419,-1.2437,-1.247,-1.2485,-1.2478,-1.2536,-1.2518,-1.252,-1.2522,-1.2542,-1.2548,-1.2553,-1.2486,-1.2486,-1.2486,0,0,-1.2297,-1.231,-1.2336,-1.2349,-1.237,-1.2377,-1.2383,-1.2402,-1.2409,-1.2439,-1.2437,-1.2456,-1.2491,-1.2505,-1.2516,-1.2556,-1.2553,-1.2562,-1.2583,-1.2603,-1.2608,-1.2612,-1.2628,-1.2634,-1.2566,-1.2566,-1.2566,0,-1.2308,-1.2343,-1.2348,-1.2374,-1.2387,-1.2386,-1.2412,-1.2425,-1.245,-1.2459,-1.2451,-1.2497,-1.2508,-1.2546,-1.2556,-1.2565,-1.2573,-1.2561,-1.2607,-1.2611,-1.2615,-1.2631,-1.2637,-1.2567,-1.2567,-1.2567,-1.2567,0,-1.2357,-1.2381,-1.2399,-1.2426,-1.2441,-1.2467,-1.2477,-1.2492,-1.2493,-1.2502,-1.2533,-1.2547,-1.2571,-1.258,-1.258,-1.2618,-1.2613,-1.2606,-1.2591,-1.2622,-1.2637,-1.2643,-1.2569,-1.2568,-1.2568,-1.2568,0,0,-1.2394,-1.2425,-1.2432,-1.2445,-1.2469,-1.2487,-1.2513,-1.2537,-1.2551,-1.2569,-1.2591,-1.2622,-1.2616,-1.2629,-1.2632,-1.265,-1.2684,-1.264,-1.2641,-1.2649,-1.2728,-1.2734,-1.2741,-1.2681,-1.2682,-1.2683,-1.2727,0,-1.243,-1.2478,-1.2485,-1.2526,-1.2549,-1.2549,-1.2572,-1.2589,-1.2597,-1.2618,-1.2627,-1.265,-1.2639,-1.2648,-1.2665,-1.2676,-1.2699,-1.2672,-1.2703,-1.2704,-1.27,-1.2748,-1.2755,-1.2795,-1.2732,-1.2733,-1.2734,0,-1.2479,-1.25,-1.2545,-1.2568,-1.2577,-1.2598,-1.2622,-1.2642,-1.2661,-1.2667,-1.2683,-1.2683,-1.2711,-1.2695,-1.2733,-1.2714,-1.2727,-1.2734,-1.2736,-1.274,-1.2722,-1.2755,-1.2808,-1.2815,-1.2743,-1.2742,-1.2742,0,-1.2504,-1.2544,-1.2576,-1.2587,-1.2614,-1.2629,-1.264,-1.2659,-1.2674,-1.2695,-1.2705,-1.2728,-1.2741,-1.2759,-1.2766,-1.2754,-1.2805,-1.2789,-1.2811,-1.2811,-1.2822,-1.2822,-1.288,-1.2828,-1.2828,-1.2828,-1.2828,0,-1.2545,-1.2572,-1.2589,-1.2609,-1.264,-1.2648,-1.2678,-1.2689,-1.2706,-1.2729,-1.2729,-1.275,-1.2758,-1.278,-1.2786,-1.2818,-1.2823,-1.2828,-1.283,-1.2829,-1.2829,-1.2839,-1.2837,-1.283,-1.2829,-1.2829,-1.2829,0,-1.2578,-1.259,-1.2626,-1.2649,-1.2656,-1.2678,-1.2698,-1.2717,-1.2726,-1.2755,-1.2762,-1.2776,-1.2803,-1.2812,-1.2843,-1.2847,-1.2885,-1.2883,-1.2879,-1.288,-1.2902,-1.2901,-1.297,-1.298,-1.292,-1.2921,-1.2921,0,-1.2604,-1.2626,-1.2652,-1.2668,-1.2681,-1.2706,-1.2722,-1.2731,-1.2748,-1.2773,-1.279,-1.2817,-1.2838,-1.2881,-1.2894,-1.2918,-1.2918,-1.2941,-1.2922,-1.2921,-1.2921,-1.292,-1.2923,-1.2944,-1.2945,-1.2945,-1.2946,0,-1.2649,-1.2655,-1.2679,-1.2706,-1.2726,-1.2747,-1.2767,-1.2779,-1.2791,-1.281,-1.2838,-1.2856,-1.2889,-1.2916,-1.2942,-1.2953,-1.2952,-1.2952,-1.2959,-1.2959,-1.2957,-1.296,-1.2891,-1.295,-1.295,-1.2949,-1.2949,-1.2949,-1.2681,-1.2702,-1.2724,-1.2752,-1.2768,-1.2788,-1.2809,-1.2821,-1.2845,-1.2875,-1.2878,-1.2909,-1.2929,-1.2964,-1.2977,-1.3001,-1.2995,-1.3004,-1.3006,-1.3009,-1.3012,-1.2952,-1.3005,-1.3005,-1.3005,-1.3005,-1.3005,0,-1.2728,-1.2744,-1.2769,-1.2798,-1.282,-1.2818,-1.2841,-1.286,-1.2887,-1.2907,-1.293,-1.2963,-1.299,-1.3005,-1.3032,-1.3049,-1.3049,-1.3056,-1.3055,-1.3059,-1.3015,-1.3007,-1.3055,-1.3055,-1.3055,-1.3055,-1.3055,-1.3055,-1.2755,-1.2791,-1.2799,-1.2843,-1.2858,-1.2889,-1.2903,-1.2921,-1.2938,-1.2975,-1.2998,-1.3009,-1.3028,-1.3057,-1.3081,-1.3085,-1.3096,-1.3103,-1.3107,-1.3066,-1.3061,-1.3056,-1.3049,-1.3105,-1.3105,-1.3149,-1.3149,-1.315]}]]